Location: Celina Division
(33.3022°N, 96.7580°W)
Time: 10:29:28
(UTC+00:00)

Cosmos 1812 - Pass Details

Date: 30 June 2022
Orbit: 508 x 515 km, 82.5° (Epoch: 14 August)

Event Time Altitude Azimuth Distance (km) Brightness Sun altitude
Rises 08:54:28 0° 340° (NNW) 2,633 6.8 -24.0°
Reaches altitude 10° 08:56:48 10° 328° (NNW) 1,740 5.6 -23.7°
Enters shadow 08:58:12 18° 313° (NW) 1,293 4.7 -23.5°
